Weather History for Henderson, NV

Change the Weather History Date:

Saturday, July 13, 2013

  Actual Average (KLAS) Record (KLAS)
Temperature  
Mean Temperature 86 °F 93 °F  
Max Temperature 100 °F 105 °F 115 °F (1939)
Min Temperature 73 °F 81 °F 64 °F (1944)
Degree Days  
Heating Degree Days 0 0  
Month to date heating degree days 0  
Since 1 June heating degree days 1  
Since 1 July heating degree days 0  
Cooling Degree Days 22 28  
Month to date cooling degree days 351  
Year to date cooling degree days 1551  
Since 1 June cooling degree days 1001  
Growing Degree Days 36 (Base 50)    
Moisture  
Dew Point 55 °F    
Average Humidity 35    
Maximum Humidity 66    
Minimum Humidity 13    
Precipitation  
Precipitation 0.00 in 0.01 in 0.23 in (1954)
Month to date precipitation 0.11  
Year to date precipitation 2.19  
Snow  
Snow 0.00 in 0.00 in 0.00 in ()
Month to date snowfall 0.0  
Since 1 June snowfall 0.0  
Since 1 July snowfall 0.0  
Snow Depth -    
Sea Level Pressure  
Sea Level Pressure 29.85 in    
Wind  
Wind Speed 6 mph (SSE)    
Max Wind Speed 21 mph    
Max Gust Speed 26 mph    
Visibility 10 miles    
Events Rain    
T = Trace of Precipitation, MM = Missing Value Source: NWS Daily Summary

Daily Weather History Graph

Daily Weather History Graph

Search for Another Location

Airport:

Trip Planner

Search our weather history database for the weather conditions in past years. The results will help you decide how hot, cold, wet, or windy it might be!

Date:

Astronomy

Jul. 13, 2013 Rise Set
Actual Time 5:34 AM PDT 7:58 PM PDT
Civil Twilight 5:04 AM PDT 8:27 PM PDT
Nautical Twilight 4:28 AM PDT 9:03 PM PDT
Astronomical Twilight 3:48 AM PDT 9:43 PM PDT
Moon 10:42 AM PDT (7/13) 10:53 PM PDT (7/13)
Length of Visible Light 15h 22m
Length of Day
14h 23m
Waxing Crescent, 26% of the Moon is Illuminated
Jul 13
Waxing Crescent
Jul 15
First Quarter
Jul 22
Full
Jul 29
Last Quarter
Aug 6
New

Hourly Weather History & Observations

Time (PDT) Temp. Heat Index Dew Point Humidity Pressure Visibility Wind Dir Wind Speed Gust Speed Precip Events Conditions
12:56 AM 79.9 °F - 61.9 °F 54% 29.87 in 10.0 mi SSE 3.5 mph - N/A   Clear
1:56 AM 77.9 °F - 59.9 °F 54% 29.86 in 10.0 mi SSE 4.6 mph - N/A   Clear
2:56 AM 77.0 °F - 61.9 °F 59% 29.86 in 10.0 mi SSE 6.9 mph - N/A   Clear
3:56 AM 75.9 °F - 59.9 °F 57% 29.86 in 10.0 mi South 6.9 mph - N/A   Clear
4:56 AM 73.9 °F - 61.9 °F 66% 29.87 in 10.0 mi South 4.6 mph - N/A   Clear
5:56 AM 73.9 °F - 61.0 °F 64% 29.90 in 10.0 mi SSE 5.8 mph - 0.00 in Rain Heavy Rain
6:56 AM 77.9 °F - 61.9 °F 58% 29.90 in 10.0 mi South 4.6 mph - 0.00 in   Clear
7:56 AM 82.9 °F 82.4 °F 56.8 °F 41% 29.91 in 10.0 mi Calm Calm - 0.00 in   Clear
8:56 AM 86.9 °F 84.9 °F 54.0 °F 32% 29.92 in 10.0 mi Calm Calm - N/A   Clear
9:56 AM 90.9 °F 88.5 °F 54.0 °F 28% 29.91 in 10.0 mi Variable 5.8 mph - N/A   Clear
10:56 AM 92.8 °F 91.7 °F 57.9 °F 31% 29.91 in 10.0 mi Variable 4.6 mph - N/A   Clear
11:56 AM 93.9 °F 92.6 °F 56.8 °F 29% 29.89 in 10.0 mi East 6.9 mph - N/A   Scattered Clouds
12:56 PM 95.9 °F 94.2 °F 55.9 °F 26% 29.87 in 10.0 mi SSE 20.7 mph 25.3 mph N/A   Partly Cloudy
1:56 PM 97.9 °F 95.8 °F 54.0 °F 23% 29.86 in 10.0 mi Variable 6.9 mph - N/A   Clear
2:56 PM 99.0 °F - 52.9 °F 21% 29.83 in 10.0 mi SSE 18.4 mph 26.5 mph N/A   Clear
3:56 PM 99.9 °F - 46.9 °F 17% 29.81 in 10.0 mi Variable 4.6 mph - N/A   Clear
4:56 PM 100.9 °F - 45.9 °F 15% 29.78 in 10.0 mi Variable 6.9 mph - N/A   Clear
5:56 PM 100.9 °F - 45.0 °F 15% 29.77 in 10.0 mi Variable 5.8 mph - N/A   Clear
6:56 PM 100.9 °F - 41.0 °F 13% 29.76 in 10.0 mi South 11.5 mph - N/A   Clear
7:56 PM 97.9 °F - 50.0 °F 20% 29.77 in 10.0 mi South 9.2 mph - N/A   Clear
8:56 PM 93.9 °F - 52.0 °F 24% 29.78 in 10.0 mi South 9.2 mph - N/A   Clear
9:56 PM 92.8 °F - 52.9 °F 26% 29.81 in 10.0 mi SSW 10.4 mph - N/A   Clear
10:56 PM 90.9 °F - 52.9 °F 27% 29.81 in 10.0 mi South 8.1 mph - N/A   Clear
11:56 PM 86.9 °F - 50.9 °F 29% 29.82 in 10.0 mi SSW 6.9 mph - N/A   Clear